Appleton, WI

5:17 PM CST on December 14, 2019 (GMT -0600)
Outagamie County Regional

Weather History for KATW - October, 2019

Change the Weather History Date:

Tuesday, October 1, 2019

  Actual Average Record
Temperature  
Mean Temperature 63 °F -  
Max Temperature 73 °F 65 °F 84 °F (1971)
Min Temperature 53 °F 45 °F 32 °F (1958)
Degree Days  
Heating Degree Days 2    
Growing Degree Days 13 (Base 50)    
Moisture  
Dew Point 64 °F    
Average Humidity 88    
Maximum Humidity 100    
Minimum Humidity 69    
Precipitation  
Precipitation 0.12 in - - ()
Sea Level Pressure  
Sea Level Pressure 29.88 in    
Wind  
Wind Speed 10 mph ()    
Max Wind Speed 20 mph    
Max Gust Speed 24 mph    
Visibility 8.0 miles    
Events Rain , Thunderstorm    
Averages and records for this station are not official NWS values.
T = Trace of Precipitation, MM = Missing Value Source: Averaged Metar Reports

Daily Weather History Graph

Daily Weather History Graph

Search for Another Location

Airport or City:

Astronomy

Oct. 01, 2019 Rise Set
Actual Time 6:51 AM CDT 6:35 PM CDT
Civil Twilight 6:22 AM CDT 7:04 PM CDT
Nautical Twilight 5:49 AM CDT 7:37 PM CDT
Astronomical Twilight 5:14 AM CDT 8:11 PM CDT
Moon 10:13 AM CDT (10/1) 8:41 PM CDT (10/1)
Length of Visible Light 12h 41m
Length of Day
11h 43m
Waxing Crescent, 12% of the Moon is Illuminated
Oct 1
Waxing Crescent
Oct 5
First Quarter
Oct 13
Full
Oct 21
Last Quarter
Oct 27
New

Hourly Weather History & Observations

Time (CDT) Temp. Dew Point Humidity Pressure Visibility Wind Dir Wind Speed Gust Speed Precip Events Conditions
12:15 AM 73.4 °F 62.6 °F 69% 29.82 in 10.0 mi SSW 13.8 mph - N/A   Clear
12:35 AM 73.4 °F 62.6 °F 69% 29.81 in 10.0 mi SW 15.0 mph - N/A   Clear
12:55 AM 73.4 °F 62.6 °F 69% 29.81 in 10.0 mi SW 16.1 mph 20.7 mph N/A   Clear
1:15 AM 73.4 °F 62.6 °F 69% 29.82 in 10.0 mi SW 15.0 mph 20.7 mph N/A   Clear
1:35 AM 73.4 °F 62.6 °F 69% 29.82 in 10.0 mi SW 15.0 mph - N/A   Clear
1:55 AM 73.4 °F 62.6 °F 69% 29.82 in 10.0 mi SW 11.5 mph - N/A   Clear
2:15 AM 73.4 °F 62.6 °F 69% 29.82 in 10.0 mi SW 11.5 mph - N/A   Clear
2:35 AM 73.4 °F 62.6 °F 69% 29.82 in 10.0 mi SW 11.5 mph - N/A   Clear
2:55 AM 73.4 °F 62.6 °F 69% 29.83 in 10.0 mi WSW 13.8 mph 18.4 mph N/A   Clear
3:15 AM 73.4 °F 62.6 °F 69% 29.83 in 10.0 mi WSW 10.4 mph - N/A   Clear
3:35 AM 71.6 °F 62.6 °F 73% 29.83 in 10.0 mi SW 9.2 mph - N/A   Clear
3:55 AM 71.6 °F 62.6 °F 73% 29.82 in 10.0 mi SW 8.1 mph - N/A   Clear
4:15 AM 71.6 °F 62.6 °F 73% 29.82 in 10.0 mi SW 9.2 mph - N/A   Clear
4:35 AM 71.6 °F 62.6 °F 73% 29.83 in 10.0 mi SW 8.1 mph - N/A   Clear
4:55 AM 71.6 °F 64.4 °F 78% 29.84 in 10.0 mi SSW 9.2 mph - N/A   Clear
5:20 AM 71.6 °F 66.2 °F 83% 29.84 in 10.0 mi SW 8.1 mph - N/A Thunderstorm Mostly Cloudy
5:45 AM 71.6 °F 66.2 °F 83% 29.85 in 7.0 mi SSW 11.5 mph - N/A Rain , Thunderstorm Light Thunderstorms and Rain
6:45 AM 71.6 °F 69.8 °F 94% 29.89 in 7.0 mi WSW 11.5 mph - N/A Rain , Thunderstorm Light Thunderstorms and Rain
7:45 AM 71.6 °F 69.8 °F 94% 29.87 in 5.0 mi WSW 4.6 mph - N/A Rain Light Rain
8:45 AM 69.8 °F 69.8 °F 100% 29.90 in 7.0 mi WSW 3.5 mph - N/A Rain Light Rain
9:45 AM 71.6 °F 69.8 °F 94% 29.91 in 5.0 mi Calm Calm - N/A Rain Light Rain
10:15 AM 71.6 °F 71.6 °F 100% 29.91 in 5.0 mi Calm Calm - N/A Rain , Thunderstorm Light Thunderstorms and Rain
10:45 AM 71.6 °F 69.8 °F 94% 29.91 in 3.0 mi Calm Calm - N/A Rain , Thunderstorm Light Thunderstorms and Rain
11:45 AM 69.8 °F 69.8 °F 100% 29.90 in 3.0 mi Variable 5.8 mph - N/A Rain Light Rain
12:45 PM 69.8 °F 69.8 °F 100% 29.92 in 5.0 mi Calm Calm - N/A Rain Light Rain
1:20 PM 69.8 °F 69.8 °F 100% 29.90 in 5.0 mi East 4.6 mph - N/A Rain Light Rain
1:45 PM 69.8 °F 69.8 °F 100% 29.88 in 7.0 mi Variable 5.8 mph - N/A   Overcast
2:45 PM 69.8 °F 69.8 °F 100% 29.90 in 7.0 mi NNE 6.9 mph - N/A   Overcast
3:45 PM 66.2 °F 66.2 °F 100% 29.90 in 7.0 mi NNE 8.1 mph - N/A   Overcast
4:45 PM 64.4 °F 64.4 °F 100% 29.89 in 7.0 mi NNE 10.4 mph - N/A   Overcast
5:45 PM 64.4 °F 64.4 °F 100% 29.91 in 3.0 mi NE 12.7 mph 21.9 mph N/A Rain Light Rain
6:45 PM 62.6 °F 62.6 °F 100% 29.90 in 7.0 mi NE 15.0 mph 23.0 mph N/A Rain Light Rain
7:45 PM 60.8 °F 60.8 °F 100% 29.92 in 10.0 mi NNE 17.3 mph 24.2 mph N/A Rain Light Rain
8:45 PM 59.0 °F 59.0 °F 100% 29.90 in 7.0 mi NE 19.6 mph 24.2 mph N/A Rain Light Rain
9:45 PM 57.2 °F 57.2 °F 100% 29.94 in 5.0 mi NE 13.8 mph 19.6 mph N/A Rain Rain
10:05 PM 57.2 °F 57.2 °F 100% 29.91 in 7.0 mi ENE 17.3 mph 21.9 mph N/A Rain Light Rain
10:45 PM 55.4 °F 55.4 °F 100% 29.94 in 7.0 mi ENE 13.8 mph 21.9 mph N/A Rain Light Rain
10:55 PM 53.6 °F 53.6 °F 100% 29.95 in 10.0 mi ENE 12.7 mph 18.4 mph 0.03 in Rain Rain
11:15 PM 53.6 °F 53.6 °F 100% 29.97 in 10.0 mi NE 9.2 mph 17.3 mph 0.05 in Rain Rain
11:35 PM 53.6 °F 53.6 °F 100% 29.97 in 10.0 mi NE 9.2 mph - 0.08 in Rain Light Rain
11:55 PM 53.6 °F 53.6 °F 100% 29.96 in 10.0 mi ENE 12.7 mph 17.3 mph 0.09 in   Drizzle